This is the latest recevied weather packets stored in our database for station/object DG4CB-13. If no packets are shown the sender has not sent any weather packets the latest 10 day(s).
| Time | Temp. | Humidity | Pressure | Rain* | Wind** | Luminosity | Snow |
|---|---|---|---|---|---|---|---|
| 1777618199 | 8.89° C | 61% | 1026.8 hPa | - | - | - | - |
| 1777617600 | 8.33° C | 62% | 1026.8 hPa | - | - | - | - |
| 1777617000 | 7.78° C | 66% | 1027 hPa | - | - | - | - |
| 1777616400 | 6.67° C | 66% | 1026.9 hPa | - | - | - | - |
| 1777615800 | 6.67° C | 66% | 1027 hPa | - | - | - | - |
| 1777615200 | 6.11° C | 65% | 1026.9 hPa | - | - | - | - |
| 1777614600 | 5.56° C | 66% | 1026.9 hPa | - | - | - | - |
| 1777614000 | 5.56° C | 65% | 1026.9 hPa | - | - | - | - |
| 1777613400 | 5° C | 65% | 1026.8 hPa | - | - | - | - |
| 1777612799 | 5° C | 65% | 1026.7 hPa | - | - | - | - |
| 1777612200 | 5° C | 65% | 1026.7 hPa | - | - | - | - |
| 1777611599 | 4.44° C | 65% | 1026.6 hPa | - | - | - | - |
| 1777611000 | 4.44° C | 65% | 1026.5 hPa | - | - | - | - |
| 1777610400 | 4.44° C | 65% | 1026.4 hPa | - | - | - | - |
| 1777609800 | 4.44° C | 64% | 1026.5 hPa | - | - | - | - |
| 1777609200 | 5° C | 63% | 1026.4 hPa | - | - | - | - |
| 1777608600 | 5° C | 62% | 1026.3 hPa | - | - | - | - |
| 1777608000 | 5° C | 62% | 1026.4 hPa | - | - | - | - |
| 1777607400 | 5° C | 62% | 1026.3 hPa | - | - | - | - |
| 1777606800 | 5° C | 61% | 1026.2 hPa | - | - | - | - |
| 1777606200 | 5° C | 61% | 1026.4 hPa | - | - | - | - |
| 1777605600 | 5.56° C | 61% | 1026.5 hPa | - | - | - | - |
| 1777604999 | 5.56° C | 61% | 1026.6 hPa | - | - | - | - |
| 1777604399 | 5.56° C | 60% | 1026.4 hPa | - | - | - | - |
| 1777603799 | 5.56° C | 60% | 1026.5 hPa | - | - | - | - |
* Rain since midnight (hover to see other rain measurements)
** Current wind speed in m/s (hover to see current wind gust speed)